Погода в Кергудах

Россия / Республика Мордовия     54°42′59″N   45°11′23″E
темп.,
°C
ветер,
м/с
пор.,
м/с
влажн.,
%
обл.,
%
осадки,
мм/ч
давл.,
гПа
погр.,
м
17 мая, вт
вт1700:00+7з2696100 0.0 1003191
03:00+7з269579 1.1 1002260
06:00+7зюз389498 0.0 1002389
09:00+9з458099 0.2 1002891
12:00+10зюз4574100 0.4 10011004
15:00+11юз446491 0.9 10011405
18:00+10зюз237811 0.8 1001570
21:00+6зсз229294 1.0 100212
18 мая, ср
ср1800:00+4зсз229490 0.0 100219
03:00+4сз2394100 0.0 100367
06:00+6зсз2687100 0.0 1003242
09:00+8сз4688100 0.2 1004673
12:00+9ссз4686100 0.6 1006744
15:00+7сз4892100 0.8 1008473
18:00+8сз478152 0.1 1009591
21:00+6з3788100 0.1 1010137
19 мая, чт
чт1900:00+6з3790100 0.2 1010285
03:00+5зсз4991100 0.3 1011622
06:00+4зсз5989100 0.1 1012665
09:00+8з576594 0.1 10111338
12:00+6з5109049 2.1 1011837
15:00+9сз5781100 2.9 10111193
18:00+7ссз58805 0.4 1012996
21:00+3з22911 0.4 101324
20 мая, пт
пт2000:00+2з359294 0.0 101390
03:00+4зюз4891100 0.1 1013384
06:00+4сз4986100 0.0 1014421
09:00+7сз676773 0.6 10141449
12:00+7ссз776950 0.8 10151391
15:00+9ссз685566 0.9 10151761
18:00+8ссз57665 0.1 10161174
21:00+3сз22825 0.1 101635
21 мая, сб
сб2100:00+2зсз22905 0.0 101625
03:00+1зсз22915 0.0 101518
06:00+4зсз25765 0.0 1015200
09:00+9ссз35585 0.0 10141068
12:00+10ссз445081 0.3 10121749
15:00+10с455788 0.6 10121428
18:00+9ссв35565 0.0 1011915
21:00+4св227531 0.0 101139